Location: Sternwarte auf dem Internationalen Platz Vogelsang IP
(50.5721°N, 6.4398°E)
Time: 19:45:40
(UTC+01:00)

A-11 Canister half - Pass Details

Date: 14 December 2025
Orbit: 1511 x 1688 km, 47.2° (Epoch: 19 January)

Event Time Altitude Azimuth Distance (km) Brightness Sun altitude
Rises 21:04:40 0° 286° (WNW) 4,753 12.4 -42.2°
Reaches altitude 10° 21:07:52 10° 280° (W) 3,791 11.7 -42.7°
Enters shadow 21:15:38 43° 230° (SW) 2,162 9.8 -43.8°
Maximum altitude 21:16:47 44° 213° (SSW) 2,127 - -44.0°
Drops below altitude 10° 21:26:00 10° 146° (SE) 3,906 - -45.4°
Sets 21:29:22 0° 140° (SE) 4,908 - -45.9°
